Powrót do katalogu

STARLINK-2088

AktywnyŁącznośćVLEO
NORAD 47371·PAYLOAD·🇺🇸 United States

Wystrzelony Jan 20, 2021 z Cape Canaveral Space Force Station

Loading…

Następne Przeloty (najbliższe 24 godziny)

TLE

ŚwieżeSource: CelesTrak SupGP

Epoka: Sep 15, 2026, 01:01 UTC

1 47371C 21005Y   26258.04284722  .00017772  00000+0  57162-3 0  2587
2 47371  53.1588 265.1409 0001246  85.4726 325.3027 15.31686392    13

Śledź STARLINK-2088 w czasie rzeczywistym z AllMySat

Download on the App Store